Location: Bonnesvalyn
(49.1218°N, 3.3177°E)
Time: 06:54:20
(UTC+00:00)

Cosmos 1980 - Pass Details

Date: 09 February 2023
Orbit: 838 x 847 km, 71.0° (Epoch: 24 March)

Event Time Altitude Azimuth Distance (km) Brightness Sun altitude
Rises 18:35:56 0° 180° (S) 3,377 6.9 -16.7°
Reaches altitude 10° 18:38:31 10° 172° (S) 2,447 6.1 -17.1°
Maximum altitude 18:43:37 37° 107° (ESE) 1,287 4.2 -17.9°
Enters shadow 18:45:19 30° 71° (ENE) 1,465 4.4 -18.2°
